Regional Weather Roundup
Issued by NWS

Home | Current Version | Previous Version | Text Only | Print | Product List | Glossary On
Versions: 1 2 3 4 5 6 7 8 9 10 11 12 13 14 15 16 17 18 19 20 21 22 23 24 25 26 27 28 29 30 31 32 33 34 35 36 37 38 39 40 41 42 43 44 45 46 47 48 49 50
000
ASUS45 KBOU 221707
RWRCO

WEATHER ROUNDUP FOR COLORADO
NATIONAL WEATHER SERVICE DENVER/BOULDER CO
1100 AM MDT TUE JUL 22 2014

NOTE: "FAIR" INDICATES FEW OR NO CLOUDS BELOW 12000 FEET WITH NO
SIGNIFICANT WEATHER AND/OR OBSTRUCTIONS TO VISIBILITY.

COZ001>005-013-030-031-221800-
...NORTHWEST COLORADO...

CITY           SKY/WX    TMP DP  RH WIND       PRES   REMARKS
CRAIG          SUNNY     78  34  20 VRB3      30.39F
HAYDEN         SUNNY     79  32  18 CALM      30.42S
MEEKER         SUNNY     81  37  20 VRB3      30.40S
MOUNT WERNER   NOT AVBL
STEAMBOAT SPGS SUNNY     76  41  28 CALM      30.44S
WALDEN         SUNNY     73  32  21 W5        30.53S
$$

COZ006>008-011-221800-
...WEST CENTRAL VALLEYS...

CITY           SKY/WX    TMP DP  RH WIND       PRES   REMARKS
GRAND JUNCTION SUNNY     84  31  14 SE8       30.29S
MONTROSE       SUNNY     81  40  23 N6        30.37F
EAGLE          SUNNY     73  37  27 CALM      30.46F
RIFLE          SUNNY     81  36  19 N5        30.35F
DELTA          SUNNY     85  31  14 SE3       30.33F
NUCLA            N/A    N/A N/A N/A MISG        N/A
$$

COZ017>023-064>068-221800-
...SOUTHWEST COLORADO...

CITY           SKY/WX    TMP DP  RH WIND       PRES   REMARKS
DURANGO        SUNNY     83  35  18 NW3       30.40S
CORTEZ         SUNNY     89  31  12 VRB3      30.34S
PAGOSA SPRINGS NOT AVBL
TELLURIDE      NOT AVBL
WOLF CREEK PAS NOT AVBL
$$

COZ009-010-012-014-032>034-037-058>063-221800-
...CENTRAL COLORADO...

CITY           SKY/WX    TMP DP  RH WIND       PRES   REMARKS
ASPEN          SUNNY     80  25  13 CALM      30.51F
BUENA VISTA    SUNNY     79  24  13 CALM      30.52F
COPPER MTN     SUNNY     64  14  14 SW3       30.88R
BERTHOUD PASS  FAIR      55  43  62 N5        30.93R
COTTONWOOD PAS SUNNY     77  18  10 SE7       30.69S
GUNNISON       SUNNY     70  39  32 CALM      30.57F
KREMMLING      SUNNY     73  37  27 CALM      30.52S
LEADVILLE      SUNNY    N/A N/A N/A N5        30.69R
MONARCH PASS   SUNNY     61  30  31 SW13      30.97S
SALIDA         NOT AVBL
SUNLIGHT       SUNNY     70  32  24 CALM      30.79R
WILKERSON PASS SUNNY     68  27  21 SW5       30.84R
$$

COZ069>075-221800-
...SAN LUIS VALLEY/SANGRE DE CRISTO MOUNTAINS...

CITY           SKY/WX    TMP DP  RH WIND       PRES   REMARKS
ALAMOSA        SUNNY     74  47  38 N6        30.50R
LA VETA PASS   SUNNY     75  39  27 E12G20    30.71R
SAGUACHE       SUNNY     75  34  22 CALM      30.52S
$$

COZ035-036-038>040-221800-
...NORTHERN COLORADO FRONT RANGE...

CITY           SKY/WX    TMP DP  RH WIND       PRES   REMARKS
DENVER INTL AP MOSUNNY   80  52  37 NE8G18    30.35S
DMNS CITY PARK   N/A     82  52  35 NE7       30.34S
AURORA         MOSUNNY   78  53  42 VRB2      30.38R
FRONT RANGE AP NOT AVBL
ERIE MUNI ARPT SUNNY     80  52  37 E6        30.34R
BOULDER MUN AP SUNNY     81  48  32 NE8       30.35R
CENTENNIAL     MOSUNNY   78  49  35 VRB3      30.38S
BROOMFIELD     MOSUNNY   79  48  34 E7        30.38R
FORT COLLINS   SUNNY     81  57  44 E8        30.33R
LONGMONT       SUNNY     86  51  30 E7        30.34S
$$

COZ041-046-047-076>085-087-088-221800-
...PIKES PEAK/PALMER DIVIDE AND SOUTHERN FOOTHILLS...

CITY           SKY/WX    TMP DP  RH WIND       PRES   REMARKS
COLO. SPRINGS  MOSUNNY   88  47  24 N12       30.36R
A. F. ACADEMY  SUNNY     83  46  26 N10       30.40R
ELLICOTT       SUNNY     85  47  26 N16G29    30.35R
FALCON         SUNNY     81  44  27 N20G28    30.44R
FORT CARSON    SUNNY     90  46  21 N9        30.33R
LIMON          SUNNY     85  50  29 NE12      30.33R
MONUMENT HILL  SUNNY     75  46  35 NE12      30.46S
TRINIDAD       SUNNY     90  44  20 NW6       30.31S
$$

COZ042>045-048>051-090-091-221800-
...NORTHEAST COLORADO...

CITY           SKY/WX    TMP DP  RH WIND       PRES   REMARKS
GREELEY ARPT   SUNNY     81  55  41 SE7       30.31S
AKRON          SUNNY     85  54  34 E15G21    30.29R
BURLINGTON     SUNNY     87  60  40 E9        30.22R
WRAY             N/A     90  56  31 E14G20    30.22R
STERLING       SUNNY     88  61  40 NE3       30.24S
HOLYOKE        SUNNY     86  55  35 E10       30.24R
FORT MORGAN    SUNNY     84  52  33 SE10      30.30S
$$

COZ086-089-092>099-221800-
...SOUTHEAST COLORADO...

CITY           SKY/WX    TMP DP  RH WIND       PRES   REMARKS
PUEBLO         SUNNY     91  46  21 N5        30.23R
LA JUNTA       SUNNY     84  62  47 E3        30.22R
LAMAR          SUNNY     87  61  41 MISG      30.17R
SPRINGFIELD      N/A     85  61  44 E7        30.22R
$$



USA.gov is the U.S. government's official web portal to all federal, state and local government web resources and services.